This is the latest recevied weather packets stored in our database for station/object IW4CYE-7. If no packets are shown the sender has not sent any weather packets the latest 10 day(s).
| Time | Temp. | Humidity | Pressure | Rain* | Wind** | Luminosity | Snow |
|---|---|---|---|---|---|---|---|
| 1788167842 | 28.33° C | 55% | 1003.7 hPa | 0 mm | - | - | - |
| 1788167242 | 28.33° C | 57% | 1004.1 hPa | 0 mm | - | - | - |
| 1788166642 | 27.78° C | 57% | 1004.1 hPa | 0 mm | - | - | - |
| 1788166042 | 27.78° C | 57% | 1004.1 hPa | 0 mm | - | - | - |
| 1788165442 | 27.22° C | 60% | 1004.1 hPa | 0 mm | - | - | - |
| 1788164842 | 27.22° C | 58% | 1004.1 hPa | 0 mm | - | - | - |
| 1788164242 | 26.67° C | 59% | 1003.7 hPa | 0 mm | - | - | - |
| 1788163642 | 26.67° C | 60% | 1003.7 hPa | 0 mm | - | - | - |
| 1788163042 | 26.11° C | 61% | 1003.7 hPa | 0 mm | - | - | - |
| 1788162442 | 25.56° C | 63% | 1003.7 hPa | 0 mm | - | - | - |
| 1788161842 | 25° C | 62% | 1003.7 hPa | 0 mm | - | - | - |
| 1788161242 | 24.44° C | 65% | 1003.7 hPa | 0 mm | - | - | - |
| 1788160642 | 23.89° C | 70% | 1003.7 hPa | 0 mm | - | - | - |
| 1788160041 | 23.89° C | 69% | 1003.7 hPa | 0 mm | - | - | - |
| 1788159441 | 23.33° C | 70% | 1003.7 hPa | 0 mm | - | - | - |
| 1788158841 | 22.22° C | 73% | 1003.7 hPa | 0 mm | - | - | - |
| 1788158241 | 22.22° C | 77% | 1003.4 hPa | 0 mm | - | - | - |
| 1788157641 | 21.67° C | 80% | 1003.4 hPa | 0 mm | - | - | - |
| 1788157041 | 21.11° C | 83% | 1003.4 hPa | 0 mm | - | - | - |
| 1788156441 | 20.56° C | 87% | 1003.4 hPa | 0 mm | - | - | - |
| 1788155841 | 20° C | 87% | 1003.4 hPa | 0 mm | - | - | - |
| 1788155241 | 19.44° C | 87% | 1003.4 hPa | 0 mm | - | - | - |
| 1788154641 | 19.44° C | 87% | 1003 hPa | 0 mm | - | - | - |
| 1788154041 | 18.89° C | 89% | 1003.4 hPa | 0 mm | - | - | - |
| 1788153441 | 18.33° C | 93% | 1003 hPa | 0 mm | - | - | - |
* Rain latest hour (hover to see other rain measurements)
** Current wind speed in m/s (hover to see current wind gust speed)